Время (UTC), дата Ветер
(°,м/с) 
Видим.   Явления Облачность Т
(°С)
Тd
(°С)
f(%) Тe
(°С)
Pmin
(гПа)
dP
(гПа)
Po
(мм)
O2
(г/м3)
Тmin Tmax R s Состояние
почвы
00 01.03.10 130 (ЮВ) 10 км  {туман}  10/10 120 м 
[St]
-0.4 -1.3 94 -4  1017.6  0.2  722  291           
03 01.03.10 130 (ЮВ) 2000 м  дымка  10/10 60 м 
[St]
-0.7 -1.4 95 -4  1017.9  0.3  722  292           
06 01.03.10 120 (ЮВ) 4000 м  дымка  10/10 120 м 
[St]
+0.7 -0.4 92 -3  1019.3  1.6  723  291  -1         
09 01.03.10 120 (ЮВ) >10 км    1/1 300 м 
[Sc]
+7.3 +0.9 64 +6  1017.8  -0.2  723  283           
12 01.03.10 100 (В) >10 км    ясно 
+9.9 +0.9 54 +8  1016.9  -0.4  722  281           
15 01.03.10 140 (ЮВ) >10 км    3/0 верхняя 
[Ci fib]
+4.6 +0.4 74 +2  1018  722  286           
18 01.03.10 130 (ЮВ) >10 км    3/0 средняя 
[Ac trans]
-0.2 -1.1 94 -3  1019.1  0.2  723  291    +9.9       
21 01.03.10 170 (Ю) 0400 м  туман  ?/?  
-0.5 -0.5 100 -3  1019  -0.2  722  292           
00 02.03.10 130 (ЮВ) 0200 м  туман [диам. гололёда 2 мм]  ?/?  
-0.7 -0.7 100 -3  1017.7  -1.3  722  291           
03 02.03.10 170 (Ю) 0200 м  туман [диам. гололёда 4 мм]  3/0 средняя 
[Ac trans]
-1 -1 100 -4  1017.3  -0.4  721  292           
06 02.03.10 120 (ЮВ) 2000 м  дымка{туман} [диам. гололёда 4 мм]  8/0 средняя 
[Ac trans]
+2.3 +1.3 93 +3  1016.7  0.1  721  288  -2.6         
09 02.03.10 040 (СВ) 10 км    8/0 средняя, верхняя 
[Ac trans|Ci fib]
+8.4 +2.5 66 +8  1014.6  -0.9  721  281           
12 02.03.10 100 (В) >10 км    10/0 средняя, верхняя 
[Ac und|Ci fib]
+10.1 +2.3 58 +9  1012.4  -1.7  719  279           
15 02.03.10 060 (СВ) >10 км    8/0 средняя, верхняя 
[Ac trans|Ci fib]
+5.8 +1.8 75 +5  1012.9  -0.3  719  283           
18 02.03.10 120 (ЮВ) >10 км    10/0 средняя 
[Ac trans]
+1.5 -0.2 88 1013.4  -0.4  719  288    +10.4       
21 02.03.10 120 (ЮВ) 10 км    10/10 100 м 
[St]
+1.2 +0.4 94 1012  -1.3  718  288           
00 03.03.10 100 (В) >10 км    10/10 120 м 
[St]
+2 +0.9 92 +1  1010.6  -1.3  717  287           
03 03.03.10 120 (ЮВ) >10 км    10/10 120 м 
[St]
+2.2 +1.2 93 1009.9  -0.5  716  286           
06 03.03.10 090 (В) 1100 м  дымка{туман}  10/10 60 м 
[St]
+1.5 +0.7 94 -2  1010.7  0.5  717  287  +1.1         
09 03.03.10 070 (В) >10 км    10/8 180 м средняя 
[St|Ac und]
+3.2 +1.1 86 1010.4  0.1  717  285           
12 03.03.10 080 (В) 4000 м  слаб. морось  10/10 120 м 
[St]
+3.2 +1.9 91 +1  1010.2  -0.2  717  285           
15 03.03.10 060 (СВ) 10 км  в посл. час дождь{морось}  10/10 210 м 
[Ns]
+2.5 +1.5 93 1011.1  0.7  717  286           
18 03.03.10 090 (В) 2500 м  дождь{морось}  10/10 100 м 
[Ns]
+1.8 +1 95 -1  1011.8  0.6  718  287    +4  0.3     
21 03.03.10 230 (ЮЗ) >10 км  {дождь}  10/8 150 м средняя 
[St|Ac und]
+1.4 +0.6 94 +1  1012.2  0.3  718  288           
00 04.03.10 260 (З) 4000 м  слаб. ливневой снег{дождь}  10/8 330 м кучево-дожд., средняя 
[Cb cap|Ac und]
+0.6 -0.2 94 -1  1013  0.5  718  289           
03 04.03.10 260 (З) 10 км  слаб. ливневой снег  10/8 300 м кучево-дожд., средняя 
[Cb cap|Ac und]
-0.1 -1 94 -3  1014.4  719  290           
06 04.03.10 270 (З) 2000 м  слаб. ливневой снег  10/5 180 м кучево-дожд., средняя 
[Cb cap|Ac und]
-0.1 -0.7 96 -4  1016.7  2.4  721  291  -0.2       
09 04.03.10 290 (З) 0300 м  слаб. переохл. морось (гололёд){ливн. осадки} [диам. гололёда 4 мм]  ?/?  
-0.1 -0.1 100 -4  1018.2  1.4  722  291           
12 04.03.10 270 (З) >10 км  {ливн. осадки, морось} [диам. гололёда 4 мм]  6/6 360 м кучево-дожд. 
[Cb calv]
+1.7 -2.4 74 -2  1018.1  0.2  722  289           
15 04.03.10 290 (З) >10 км    3/3 300 м 
[Sc diur, vesp]
+0.6 -2.7 79 -2  1019.1  0.8  723  291           
18 04.03.10 210 (ЮЗ) >10 км    3/0 средняя 
[Ac trans]
-1.4 -3.4 86 -2  1019.7  0.1  723  293    +2.4     
21 04.03.10 190 (Ю) >10 км    4/0 средняя 
[Ac trans]
-1.8 -3.9 86 -3  1018.6  -1.2  722  293           
00 05.03.10 120 (ЮВ) >10 км    ясно 
-4.1 -5.7 89 -6  1016.5  -2.3  720  295           
03 05.03.10 100 (В) >10 км    6/0 средняя, верхняя 
[Ac trans|Ci]
-2.8 -3.8 93 -6  1014.6  -1.6  719  293           
06 05.03.10 090 (В) 3000 м  дымка  10/0 средняя 
[Ac trans]
-1.6 -2.7 92 -5  1013.7  -0.5  719  291  -4.6         
09 05.03.10 100 (В) 10 км    10/5 400 м средняя 
[Sc|Ac und]
+0.6 -2.3 81 -2  1012.2  -1  718  289           
12 05.03.10 090 (В) >10 км    10/6 330 м средняя 
[Sc|Ac und]
+1.2 -3.3 72 -2  1010.9  -1.2  717  288           
15 05.03.10 100 (В) >10 км    10/6 330 м средняя 
[Sc|Ac und]
-0.4 -2.5 86 -3  1011.3  0.1  717  290           
18 05.03.10 100 (В) 1000 м  сильн. снег  10/10 60 м 
[Ns]
-1.2 -1.8 96 -4    0.1  717  290    +1.5       
21 05.03.10 110 (В) 2000 м  сильн. снег  10/10 100 м 
[Ns]
-1 -1.7 95 -5  1011  -0.5  717  290           
00 06.03.10 120 (ЮВ) 10 км  {снег}  10/10 100 м 
[Ns]
-1.5 -2.3 94 -6  1010.7  -0.3  716  290           
03 06.03.10 100 (В) 15  0500 м  дымка{снег}  10/10 100 м 
[Ns]
-2   1010  -0.7  716          равномерный
сухой снег
100% 
06 06.03.10 130 (ЮВ) 10 км    10/10 120 м 
[St]
-1.2 -1.9 95 -4  1009.8  -0.1  716  290  -1.6      равномерный
сухой снег
100% 
09 06.03.10 130 (ЮВ) >10 км    10/8 300 м средняя 
[Sc|Ac und]
+2.3 +0.4 87 -1  1008.5  -0.6  715  286           
12 06.03.10 130 (ЮВ) >10 км    10/8 300 м средняя 
[Sc|Ac und]
+3.5 +1.4 86 +1  1006.4  -1.7  714  284           
15 06.03.10 180 (Ю) >10 км  слаб. ливневой дождь  10/8 360 м кучево-дожд., средняя 
[Cb cap|Ac und]
+2.4 +0.8 89 +1  1008.1  1.3  715  285           
18 06.03.10 040 (СВ) 10 км  слаб. ливневой снег  10/8 300 м кучево-дожд., средняя 
[Cb cap|Ac und]
+0.5 -0.1 96 -2  1019.7  -0.2  716  288    +3.9  0.3     
21 06.03.10 200 (Ю) 10 км  {ливн. осадки}  10/8 600 м кучево-дожд., средняя 
[Cb calv|Ac und]
+1.8 +0.5 91 -1  1007.6  -1.2  715  286           
00 07.03.10 250 (З) >10 км  {ливн. осадки}  10/8 630 м кучево-дожд., средняя 
[Cb calv|Ac und]
+3 +1.4 89 +2  1007.4  715  285           
03 07.03.10 260 (З) >10 км    10/8 500 м кучево-дожд., средняя 
[Cb calv|Ac und]
+4.1 -3.4 58 +5  1008.2  1.1  716  284           
06 07.03.10 240 (ЮЗ) 4000 м  ливневой дождь  10/8 240 м кучево-дожд., средняя 
[Cb cap|Ac und]
+2.8 +2.3 97 -1  1011.6  2.9  718  286  +0.4       
09 07.03.10 270 (З) 15-20{22}  >10 км    5/5 600 м кучево-дожд. 
[Cb calv]
+5.7 -1.3 61 +1  1012  0.9  718  284           
12 07.03.10 240 (ЮЗ) 15-19{20}  >10 км  {ливн. осадки}  4/4 600 м 
[Sc]
+5 -3.7 53 1014.9  2.6  720  285           
15 07.03.10 260 (З) 17{18}  >10 км    9/6 800 м кучево-дожд., средняя 
[Cb calv|Ac trans]
+2.1 -2.9 69 -4  1018.5  2.8  722  289           
18 07.03.10 260 (З) 12  >10 км    10/8 450 м кучево-дожд., средняя 
[Cb calv|Ac und]
+0.2 -1.5 88 -5  1021.9  2.8  725  292    +6  0.4     
21 07.03.10 280 (З) 10  >10 км    10/8 360 м кучево-дожд., средняя 
[Cb calv|Ac und]
-1.2 -3 88 -6  1022.5  0.4  725  294           
00 08.03.10 290 (З) 12  >10 км    10/6 400 м кучево-дожд., средняя 
[Cb calv|Ac und]
-2.3 -3.8 89 -8  1023.1  0.3  725  295           
03 08.03.10 280 (З) >10 км  в посл. час ливневой снег  8/8 450 м кучево-дожд. 
[Cb calv]
-2.6 -4.2 89 -8  1024.8  1.6  726  296           
06 08.03.10 270 (З) 4000 м  дымка{ливн. осадки}  10/10 150 м 
[St]
-3 -4 93 -6  1026.8  1.8  728  297  -3    0.0     
09 08.03.10 280 (З) >10 км    10/5 300 м средняя 
[Sc|Ac und]
-1.7 -5.5 75 -5  1027.4  0.7  728  296           
12 08.03.10 300 (СЗ) >10 км    10/4 300 м средняя 
[Sc|Ac und]
-1 -5.6 71 -4  1026.5  -0.6  728  295           
15 08.03.10 280 (З) >10 км    10/3 300 м средняя 
[Sc|Ac und]
-2 -5.5 77 -3  1026.2  -0.5  727  296           
18 08.03.10 080 (В) >10 км    8/0 средняя 
[Ac trans]
-2.7 -4.6 87 -4  1025.5  -0.9  727  296    -0.4       
21 08.03.10 070 (В) >10 км    10/6 720 м кучево-дожд., средняя 
[Cb cap|Ac und]
-2.7 -3.7 93 -6  1023.7  -1.5  726  296           
00 09.03.10 050 (СВ) 1500 м  ливневой снег  10/6 60 м кучево-дожд., средняя 
[Cb cap|Ac und]
-3.3 -4.4 92 -7  1022.8  -1.1  725  296           
03 09.03.10 050 (СВ) 1500 м  ливневой снег  10/6 120 м кучево-дожд., средняя 
[Cb cap|Ac und]
-3.5 -4 96 -7  1022.3  -0.5  724  296        равномерный
сухой снег
100% 
06 09.03.10 070 (В) 2500 м  слаб. ливневой снег  10/8 100 м кучево-дожд., средняя 
[Cb cap|Ac und]
-3.7 -4.5 94 -8  1024.3  1.8  726  297  -3.7       
09 09.03.10 090 (В) 4000 м  слаб. ливневой снег  10/8 100 м кучево-дожд., средняя 
[Cb cap|Ac und]
-3.1 -4.1 93 -7  1021.2  -2.7  724  295           
12 09.03.10 100 (В) 4000 м  ливневой дождь [диам. гололёда 5 мм]  10/8 60 м кучево-дожд., средняя 
[Cb cap|Ac und]
-2 -2.9 94 -6  1018.7  -2.3  722  293           
15 09.03.10 090 (В) 3000 м  ливневой дождь [диам. гололёда 6 мм]  10/8 60 м кучево-дожд., средняя 
[Cb cap|Ac und]
-1.8 -2.3 96 -5  1017.2  -1.3  721  293           
18 09.03.10 110 (В) 2000 м  слаб. ливневой дождь{туман} [диам. гололёда 12 мм]  10/8 60 м кучево-дожд., средняя 
[Cb cap|Ac und]
-1.4 -1.9 96 -4  1015.3  -1.7  720  292    -1.5     
21 09.03.10 120 (ЮВ) 4000 м  слаб. ливневой дождь [диам. гололёда 15 мм]  10/8 100 м кучево-дожд., средняя 
[Cb cap|Ac und]
-1.5 -2 96 -6  1013.5  -1.7  718  291           
00 10.03.10 100 (В) 2000 м  ливневой дождь [диам. гололёда 19 мм]  8/8 120 м кучево-дожд., средняя 
[Cb cap|Ac und]
-1.4   1012.6  -0.6  718             
03 10.03.10 120 (ЮВ) 4000 м  ливневой дождь [диам. гололёда 22 мм]  10/8 100 м кучево-дожд., средняя 
[Cb cap|Ac und]
-0.9 -1.6 95 -3  1012.7  718  290        равномерный
мокрый или
старый снег
100% 
06 10.03.10 110 (В) 10 км  слаб. ливневой дождь [диам. гололёда 26 мм]  10/8 100 м кучево-дожд., средняя 
[Cb cap|Ac und]
-0.5 -0.8 98 -1  1016.5  3.6  721  291  -1.8    равномерный
мокрый или
старый снег
100% 
09 10.03.10 290 (З) >10 км  {ливн. осадки} [диам. гололёда 23 мм]  10/8 300 м кучево-дожд., средняя 
[Cb calv|Ac und]
+0.7 -1 88 -2  1019  2.7  723  290           
12 10.03.10 300 (СЗ) 10  2000 м  слаб. ливневой снег [диам. гололёда 21 мм]  10/8 180 м кучево-дожд., средняя 
[Cb cap|Ac und]
-3.4 -4.2 94 -9  1023.4  3.2  725  296           
15 10.03.10 320 (СЗ) 1500 м  слаб. ливневой снег [диам. гололёда 21 мм]  10/8 120 м кучево-дожд., средняя 
[Cb cap|Ac und]
-5.9 -6.3 97 -11  1029.3  5.1  729  301           
18 10.03.10 330 (СЗ) 2000 м  слаб. ливневой снег [диам. гололёда 21 мм]  10/8 120 м кучево-дожд., средняя 
[Cb cap|Ac und]
-7.2 -7.7 96 -10  1031.8  2.1  731  303    +0.9  12     
21 10.03.10 290 (З) 10 км  в посл. час ливневой снег [диам. гололёда 21 мм]  10/8 210 м кучево-дожд., средняя 
[Cb calv|Ac und]
-6.8 -8 91 -9  1033.5  1.7  732  303           
00 11.03.10 260 (З) >10 км  {ливн. осадки} [диам. гололёда 21 мм]  6/4 300 м кучево-дожд., средняя 
[Cb calv|Ac trans]
-7.1 -8.4 91 -9  1033.7  732  304           
03 11.03.10 160 (Ю) >10 км  [диам. гололёда 21 мм]  3/0 средняя 
[Ac trans]
-9.7 -11.4 87 -13  1033.4  -0.8  731  307        равномерный
мокрый или
старый снег
100% 
06 11.03.10 230 (ЮЗ) 3000 м  дымка{туман} [диам. гололёда 21 мм]  6/6 150 м 
[St]
-6 -7.5 89 -9  1032.5  731  302  -9.9    0.3  равномерный
мокрый или
старый снег
100% 
09 11.03.10 110 (В) 10 км  [диам. гололёда 19 мм]  8/3 200 м верхняя 
[St|Ci fib]
-2.1 -4.9 81 -5  1029.4  -2.1  730  297           
12 11.03.10 080 (В) 10 км    10/6 270 м средняя 
[St|Ac und]
-1 -3.6 82 -4  1025.5  -3.4  727  294           
15 11.03.10 120 (ЮВ) 4000 м  дымка  10/8 150 м средняя 
[St|Ac und]
-2.3 -3.2 94 -6  1022.6  -3.1  725  295           
18 11.03.10 120 (ЮВ) 10 км    10/5 300 м средняя 
[Sc|Ac und]
-1.3 -2.7 90 -6  1019.5  -2.8  723  293    +0.3       
21 11.03.10 120 (ЮВ) >10 км    10/4 300 м средняя 
[Sc|Ac und]
-0.8 -3.3 83 -5  1017  -2.2  721  292           
00 12.03.10 110 (В) >10 км    8/3 300 м средняя 
[Sc|Ac trans]
-2 -3.8 87 -5  1014.3  -2.8  719  292           
03 12.03.10 150 (ЮВ) 2000 м  дымка  10/8 120 м средняя 
[St|Ac und]
-2.4 -3.3 94 -7  1012.1  -2.1  717  292        равномерный
мокрый или
старый снег
100% 
06 12.03.10 130 (ЮВ) >10 км    8/3 300 м кучево-дожд., средняя 
[Cb calv|Ac trans]
-0.2 -1.9 88 -2  1012.2  718  290  -2.5      равномерный
мокрый или
старый снег
100% 
09 12.03.10 040 (СВ) >10 км  слаб. ливневой дождь  10/6 700 м кучево-дожд., средняя 
[Cb cap|Ac und]
+1.7 +0.1 89 +1  1011.9  -0.3  718  287           
12 12.03.10 170 (Ю) >10 км  в посл. час ливневой дождь  8/6 540 м кучево-дожд., средняя 
[Cb calv|Ac trans]
+6.7 +3.4 79 +7  1010.7  -0.2  718  282           
15 12.03.10 270 (З) >10 км    10/8 330 м средняя 
[Sc|Ac und]
+4.1 +1.8 85 +5  1012.7  1.4  719  285           
18 12.03.10 170 (Ю) >10 км    10/6 330 м средняя 
[Sc|Ac und]
+3.7 +1.9 88 +3  1013.3  0.5  719  286    +6.9  0.5     
21 12.03.10 200 (Ю) >10 км    10/8 300 м средняя 
[Sc|Ac und]
+3.9 +2.7 92 +3  1013.2  -0.1  719  285           
00 13.03.10 250 (З) 10 км  слаб. дождь  10/6 360 м средняя 
[Sc|Ac und]
+3.4 +2.1 91 +3  1012.7  -0.6  719  286           
03 13.03.10 тихо ()   0500 м  туман{дождь}  ?/?  
+3.3 +3.3 100 +3  1012.4  -0.3  718  285        мокрый или
старый снег
10-40% 
06 13.03.10 320 (СЗ) 2000 м  слаб. дождь{туман}  10/8 420 м средняя 
[Sc|Ac und]
+3.8 +3.1 95 +3  1011.8  -0.4  718  285  +3.1    0.4  мокрый или
старый снег
10-40% 
09 13.03.10 240 (ЮЗ) 4000 м  слаб. ливневой дождь  10/8 400 м кучево-дожд., средняя 
[Cb cap|Ac und]
+4 +2.5 90 +3  1012.5  0.6  719  285           
12 13.03.10 280 (З) 10 км  слаб. ливневой дождь  10/8 420 м кучево-дожд., средняя 
[Cb cap|Ac und]
+6.4 +3.8 83 +5  1011.3  -0.6  718  282           
15 13.03.10 270 (З) >10 км  {ливн. осадки}  9/3 400 м кучево-дожд., средняя, верхняя 
[Cb calv|Ac trans|Ci fib]
+6.4 +0.8 67 +4  1011.8  0.4  718  283           
18 13.03.10 260 (З) >10 км  {ливн. осадки}  5/3 300 м кучево-дожд., средняя 
[Cb calv|Ac trans]
+3.7 +2.2 90 +1  1013.5  1.2  719  286    +7.3     
21 13.03.10 290 (З) >10 км    3/0 средняя 
[Ac trans]
+2.3 +0.4 87 -1  1013.7  -0.1  719  287           
00 14.03.10 280 (З) >10 км    1/0 средняя 
[Ac trans]
+2.6 -0.7 79 -1  1013.4  -0.3  719  287           
03 14.03.10 240 (ЮЗ) >10 км    8/3 300 м средняя 
[Sc|Ac trans]
+2.5 +0.1 84 +1  1013.7  0.3  719  287           
06 14.03.10 230 (ЮЗ) >10 км    10/4 400 м средняя 
[Sc|Ac und]
+3.3 +1.2 86 +3  1013.9  0.4  719  286  +1.8         
09 14.03.10 290 (З) >10 км    10/4 840 м средняя 
[Sc|Ac und]
+5.3 +0.7 72 +4  1012.8  -0.7  719  284           
12 14.03.10 300 (СЗ) >10 км    10/3 750 м средняя 
[Sc|Ac und]
+5.2 +0.8 73 +3  1011.2  -1.5  718  284           
15 14.03.10 300 (СЗ) 10 км  слаб. ливневой дождь  10/8 180 м кучево-дожд., средняя 
[Cb cap|Ac und]
+1.6 -0 89 -2  1012.7  0.6  718  288           
18 14.03.10 260 (З) >10 км  в посл. час ливневой снег  10/8 270 м кучево-дожд., средняя 
[Cb calv|Ac und]
+1 -0.1 92 -1  1014.3  1.5  719  289    +5.4     
21 14.03.10 250 (З) >10 км    10/6 600 м кучево-дожд., средняя 
[Cb calv|Ac und]
+0.6 -1.1 88 -1  1014.4  719  289           
00 15.03.10 240 (ЮЗ) >10 км    10/6 600 м кучево-дожд., средняя 
[Cb calv|Ac und]
+0.9 -0.2 92 -1  1014.2  -0.1  719  289           
03 15.03.10 200 (Ю) >10 км    10/4 1000 м средняя 
[Sc diur, vesp|Ac und]
+0.9 -0.5 90 1013.8  -0.4  719  289           
06 15.03.10 190 (Ю) >10 км    10/4 1000 м средняя 
[Sc|Ac und]
+2.3 +0.4 87 +2  1013.2  -0.3  719  287  +0.5    0.4     
09 15.03.10 150 (ЮВ) >10 км    9/5 540 м средняя 
[Sc|Ac trans]
+5.1 -0.8 66 +3  1010.7  -1.9  717  284           
12 15.03.10 130 (ЮВ) >10 км    10/6 600 м средняя 
[Sc|Ac und]
+4.8 -0.5 68 +4  1010.1  -0.6  717  284           
15 15.03.10 160 (Ю) 10 км  слаб. ливневой дождь  10/6 150 м кучево-дожд., средняя 
[Cb cap|Ac und]
+2.4 +1.4 93 +1  1009.5  -1  716  286           
18 15.03.10 140 (ЮВ) 3000 м  слаб. ливневой снег  10/8 210 м кучево-дожд., средняя 
[Cb cap|Ac und]
+0.7 +0.4 98 -2  1009.3  -0.5  716  288    +6.2  0.5     
21 15.03.10 170 (Ю) 0700 м  ливневой снег  10/8 150 м кучево-дожд., средняя 
[Cb cap|Ac und]
+0 -0.8 94 -1  1009.2  -0.8  715  288           
00 16.03.10 190 (Ю) 0600 м  ливневой снег  10/8 120 м кучево-дожд., средняя 
[Cb cap|Ac und]
-0.1 -1 94 -1  1009.4  0.4  716  289           
03 16.03.10 250 (З) 10 км  {ливн. осадки}  10/8 100 м кучево-дожд., средняя 
[Cb calv|Ac und]
+0.8 +0.3 96 -2  1008.6  -0.6  715  287        равномерный
мокрый или
старый снег
100% 
06 16.03.10 280 (З) >10 км  {ливн. осадки}  4/3 300 м средняя 
[Sc|Ac trans]
+2.7 -0.9 77 1009.1  0.9  716  286  -0.1    равномерный
мокрый или
старый снег
100% 
09 16.03.10 290 (З) >10 км    6/6 600 м 
[Cu med, cong]
+6.5 -2.2 54 +4  1007.9  -0.5  716  282           
12 16.03.10 290 (З) 13  10 км  слаб. ливневой дождь со снегом  10/6 420 м кучево-дожд., средняя 
[Cb cap|Ac und]
+2.2 -1.2 78 -3  1009.8  1.1  716  286           
15 16.03.10 290 (З) 13  10 км  в посл. час ливневой снег  10/8 600 м кучево-дожд., средняя 
[Cb cap|Ac und]
-2 -3.8 87 -8  1015  719  292           
18 16.03.10 270 (З) >10 км  {ливн. осадки}  6/4 570 м кучево-дожд. 
[Cb calv]
-3.3 -5.7 84 -8  1022.1  6.4  724  296  +9.2    0.3     
21 16.03.10 280 (З) >10 км    3/0 средняя 
[Ac trans]
-4 -8.5 71 -9  1023.6  1.3  725  297           
00 17.03.10 280 (З) >10 км    3/0 средняя 
[Ac trans]
-4.8 -9.7 68 -10  1024.3  0.5  726  298           
03 17.03.10 250 (З) >10 км    3/0 средняя 
[Ac trans]
-6.4 -15.9 47 -10  1024  -0.6  725  300      0.0  равномерный
сухой снег
100% 
06 17.03.10 100 (В) 13  0600 м    5/5 <0100 м средняя 
[Ac trans]
-10.3   1022.3  -0.6  725    -6.5    0.0     
09 17.03.10 160 (Ю) >10 км    3/0 средняя 
[Ac trans]
+4.5 -4.8 51 +2  1018.5  -2.4  723  287           
12 17.03.10 170 (Ю) >10 км    9/6 900 м средняя 
[Sc|Ac trans]
+6.9 -8.8 32 +5  1016.1  -1.9  721  284           
15 17.03.10 300 (СЗ) 1100 м  ливневой снег  10/8 180 м кучево-дожд., средняя 
[Cb cap|Ac und]
+0.7 +0.4 98 -2  1019.5  2.2  723  290           
18 17.03.10 320 (СЗ) 2000 м  ливневой снег  10/8 100 м кучево-дожд., средняя 
[Cb cap|Ac und]
-3.7 -4.7 93 -7  1023  2.3  725  297    +7  0.0     
21 17.03.10 260 (З) 1800 м  ливневой снег  10/8 100 м кучево-дожд., средняя 
[Cb cap|Ac und]
-3.8 -4.8 93 -7  1025.5  2.3  727  297           
00 18.03.10 270 (З) 3000 м  слаб. ливневой снег  10/8 180 м кучево-дожд., средняя 
[Cb cap|Ac und]
-3.8 -5 91 -8  1028  2.4  728  298           
03 18.03.10 280 (З) 10 км  в посл. час ливневой снег  4/3 300 м кучево-дожд., средняя 
[Cb calv|Ac trans]
-6.9 -8.5 88 -10  1029.6  0.9  729  302        равномерный
сухой снег
100% 
06 18.03.10 250 (З) >10 км  {ливн. осадки}  3/1 600 м кучево-дожд., средняя 
[Cb calv|Ac trans]
-3.5 -8.3 69 -8  1029.6  0.7  730  299  -7    равномерный
сухой снег
100% 
09 18.03.10 300 (СЗ) >10 км    3/3 600 м кучево-дожд., средняя 
[Cb calv|Ac trans]
-0.4 -7.5 59 -4  1029.4  0.4  730  295           
12 18.03.10 310 (СЗ) >10 км    4/4 600 м кучево-дожд., средняя 
[Cb calv|Ac trans]
+0.6 -7.6 54 -2  1028.9  -0.3  730  294           
15 18.03.10 270 (З) >10 км    8/1 600 м средняя, верхняя 
[Sc diur, vesp|Ac trans|Ci fib]
-0.4 -8.2 56 -3  1029  -0.1  730  295           
18 18.03.10 200 (Ю) >10 км    3/0 средняя 
[Ac trans]
-2.8 -7.7 69 -6  1028.9  -0.5  729  298    +1.2       
21 18.03.10 230 (ЮЗ) >10 км    3/0 средняя 
[Ac trans]
-3.8 -8.7 69 -7  1028.2  -0.9  728  298           
00 19.03.10 240 (ЮЗ) 4000 м  слаб. ливневой снег  10/8 180 м кучево-дожд., средняя 
[Cb cap|Ac und]
-2 -3.5 90 -5  1027.5  -0.3  728  296           
03 19.03.10 300 (СЗ) 2000 м  ливневой снег  10/8 180 м кучево-дожд., средняя 
[Cb cap|Ac und]
-1.9 -3 92 -7  1027.4  -0.1  728  296        неравномерный
сухой снег
100% 
06 19.03.10 300 (СЗ) 1100 м  слаб. ливневой снег  10/8 120 м кучево-дожд., средняя 
[Cb cap|Ac und]
-2.2 -3.7 89 -7  1030.8  3.3  731  297  -4       
09 19.03.10 320 (СЗ) 10 км  в посл. час ливневой снег  10/8 270 м кучево-дожд., средняя 
[Cb calv|Ac und]
-3.3 -5.7 84 -7  1034.5  3.2  733  300           
12 19.03.10 100 (В) 14  0400 м  {ливн. осадки}  3/3 200 м кучево-дожд., средняя 
[Cb calv|Ac trans]
-7   1035  0.8  734             
15 19.03.10 360 (С) >10 км    4/0 средняя 
[Ac trans]
-0.6 -10.6 47 1035.4  0.5  734  297           
18 19.03.10 180 (Ю) >10 км    10/6 800 м средняя 
[Sc|Ac und]
-1.6 -6.8 68 -4  1035.8  0.3  734  298    -0.4  0.6     
21 19.03.10 200 (Ю) >10 км    10/5 600 м средняя 
[Sc|Ac und]
-1.6 -4.6 80 -5  1034.9  -0.9  734  298           
00 20.03.10 250 (З) >10 км    4/0 средняя 
[Ac trans]
+0.4 -3.2 77 -3  1033.9  -0.5  733  295           
03 20.03.10 280 (З) >10 км    4/0 средняя 
[Ac trans]
+0.6 -2.3 81 -3  1033.2  -0.7  733  295        мокрый или
старый снег
10-40% 
06 20.03.10 280 (З) >10 км    6/0 средняя 
[Ac trans]
+3.9 -1 70 +1  1033.1  0.6  733  291  -1.8         
09 20.03.10 280 (З) >10 км    8/0 средняя 
[Ac trans]
+6.6 -2.1 54 +4  1032.1  -0.5  733  288           
12 20.03.10 280 (З) >10 км    10/3 600 м верхняя 
[Cu med, cong|Ci fib]
+9.2 -1.2 48 +8  1030.1  -1.3  732  285           
15 20.03.10 280 (З) >10 км    8/1 600 м верхняя 
[Sc diur, vesp|Ci fib]
+7.5 +0.2 60 +7  1030  -0.4  731  287           
18 20.03.10 280 (З) >10 км    4/0 верхняя 
[Ci sp]
+4.5 -0.3 71 +3  1030.8  731  290    +9.7       
21 20.03.10 240 (ЮЗ) >10 км    4/0 верхняя 
[Ci fib]
+1.5 -1.7 79 1030.3  -0.9  731  293           
00 21.03.10 260 (З) >10 км    ясно 
+0.9 -2 81 -1  1030  -0.4  731  294           
03 21.03.10 170 (Ю) >10 км    1/0 верхняя 
[Ci fib]
+0.2 -1.5 88 -2  1029.4  -0.8  730  294           
06 21.03.10 160 (Ю) >10 км    3/0 верхняя 
[Ci fib]
+7.1 +0.4 62 +6  1027.4  -0.5  730  286  +0.1         
09 21.03.10 130 (ЮВ) >10 км    5/0 верхняя 
[Ci fib]
+12.8 -6.4 26 +12  1025.2  -1.1  729  281           
12 21.03.10 280 (З) >10 км    5/0 верхняя 
[Ci fib]
+14.3 -14.4 12 +14  1023.4  -1.4  728  280           
15 21.03.10 290 (З) >10 км    8/0 верхняя 
[Ci fib]
+11.8 -8.2 24 +12  1023.5  -0.4  727  282           
18 21.03.10 240 (ЮЗ) >10 км    8/0 верхняя 
[Ci fib]
+7.5 -4.1 44 +7  1024.3  727  286    +15       
21 21.03.10 210 (ЮЗ) >10 км    8/0 верхняя 
[Ci fib]
+8 -5.4 38 +7  1024.2  -1.4  726  285           
00 22.03.10 200 (Ю) >10 км    8/0 средняя 
[Ac trans]
+8.1 -5.7 37 +7  1021.6  -1  726  284           
03 22.03.10 210 (ЮЗ) >10 км    9/0 средняя 
[Ac trans]
+0.7 -5.4 64 -1  1020.5  -1.1  725  292           
06 22.03.10 230 (ЮЗ) >10 км    8/0 средняя 
[Ac trans]
+11.6 -6.7 27 +11  1019.4  -0.4  724  281  +7.4         
09 22.03.10 280 (З) >10 км    9/0 средняя 
[Ac trans]
+15.6 -14.4 11 +15  1017.8  -0.7  724  277           
12 22.03.10 260 (З) >10 км    9/3 1000 м средняя 
[Sc|Ac trans]
+16.6 -10.3 15 +16  1016.6  -0.7  723  276           
15 22.03.10 300 (СЗ) >10 км    9/4 600 м средняя 
[Sc|Ac trans]
+14.4 -8.2 20 +14  1016  -1  722  277           
18 22.03.10 290 (З) >10 км    9/4 600 м средняя 
[Sc|Ac trans]
+11.6 -7.1 26 +11  1016.8  0.3  723  280    +18       
21 22.03.10 260 (З) >10 км    10/5 600 м кучево-дожд., средняя 
[Cb calv|Ac und]
+10.5 -4.1 36 +9  1016.6  -0.4  722  281           
00 23.03.10 270 (З) >10 км  слаб. ливневой дождь  10/8 600 м кучево-дожд., средняя 
[Cb cap|Ac und]
+8.8 +4.3 73 +7  1017.1  0.2  722  281           
03 23.03.10 300 (СЗ) >10 км  {ливн. осадки}  9/5 600 м кучево-дожд., средняя 
[Cb calv|Ac trans]
+8.1 +4 75 +7  1017.6  0.4  723  282           
06 23.03.10 300 (СЗ) 10 км  слаб. ливневой дождь  10/6 300 м кучево-дожд., средняя 
[Cb cap|Ac und]
+7.6 +5.6 87 +6    1.2  724  283  +7.6       
09 23.03.10 300 (СЗ) 4000 м  дымка{ливн. осадки, туман}  10/6 300 м кучево-дожд., средняя 
[Cb cap|Ac und]
+7 +4.3 83 +5  1021.4  2.2  725  284           
12 23.03.10 320 (СЗ) >10 км  {ливн. осадки}  8/5 600 м кучево-дожд., средняя 
[Cb calv|Ac trans]
+8.4 +2.7 67 +7  1022  0.8  726  283           
15 23.03.10 290 (З) >10 км    4/4 600 м средняя 
[Sc|Ac trans]
+7.1 +1.7 68 +6  1024  1.6  727  285           
18 23.03.10 350 (С) >10 км    ясно 
+2.8 +0.4 84 +4  1026.7  1.8  728  290    +9  0.0     
21 23.03.10 190 (Ю) >10 км    ясно 
+1.1 -0.9 87 1026.6  -0.5  728  292           
00 24.03.10 140 (ЮВ) >10 км    ясно 
+0.4 -0.7 92 -2  1026.8  0.1  728  293           
03 24.03.10 150 (ЮВ) 0300 м  туман  ?/?  
+1.5 +1.5 100 -1  1025.8  -0.8  728  291           
06 24.03.10 160 (Ю) 2500 м  дымка{туман}  10/6 120 м средняя 
[St|Ac und]
+4.1 +3.6 97 +1  1024.3  -0.8  727  288  +0         
09 24.03.10 140 (ЮВ) >10 км    3/0 верхняя 
[Ci sp]
+11.6 +3.4 57 +10  1020.3  -2.4  725  280           
12 24.03.10 130 (ЮВ) >10 км    4/0 верхняя 
[Ci sp]
+14.8 +2.5 43 +14  1017  -2.6  723  276           
15 24.03.10 150 (ЮВ) >10 км    9/0 средняя 
[Ac trans]
+11.6 +4 60 +11  1015.1  -2.3  722  278           
18 24.03.10 140 (ЮВ) >10 км    8/0 средняя, верхняя 
[Ac trans|Ci fib]
+8.2 +5.1 81 +8  1017.1  1.2  722  282    +15.4       
21 24.03.10 260 (З) >10 км    9/0 средняя, верхняя 
[Ac trans|Cc]
+8.1 +2.1 66 +7  1015.6  -1.4  721  282           
00 25.03.10 300 (СЗ) >10 км    6/0 средняя 
[Ac trans]
+9.3 +3 65 +8  1017.1  1.6  723  281           
03 25.03.10 320 (СЗ) >10 км    3/0 средняя 
[Ac trans]
+4.6 -1.8 63 +3  1020.2  724  287  +4.4        влажная 
06 25.03.10 350 (С) >10 км    3/0 средняя 
[Ac trans]
+6.3 +0.1 64 +4  1022.6  2.7  726  286  +4.4         
09 25.03.10 360 (С) >10 км    1/0 верхняя 
[Ci fib]
+10.2 +1.7 56 +10  1022.4  0.5  726  282           
12 25.03.10 010 (С) >10 км    1/0 верхняя 
[Ci fib]
+11.9 -0.7 42 +11  1021.7  -0.5  726  280           
15 25.03.10 040 (СВ) >10 км    4/0 верхняя 
[Ci fib]
+8.5 -0.7 52 +6  1023.3  727  284           
18 25.03.10 050 (СВ) >10 км    3/0 средняя 
[Ac trans]
+3.5 -0.9 73 +1  1026.4  728  290    +12.2       
21 25.03.10 070 (В) >10 км    3/0 средняя 
[Ac trans]
-0.4 -1.9 90 -3  1028.5  1.2  729  294           
00 26.03.10 090 (В) >10 км    3/0 средняя 
[Ac trans]
+0.4 -1.3 88 -3  1029  0.6  730  294           
03 26.03.10 100 (В) >10 км    10/3 600 м средняя 
[Sc|Ac und]
+1.2 -1.7 81 -1  1029.6  0.7  730  293           
06 26.03.10 110 (В) >10 км    10/8 570 м средняя 
[Sc|Ac und]
+1.9 -2.5 73 -2  1030.7  1.2  731  293  -0.6         
09 26.03.10 100 (В) >10 км    10/8 660 м средняя 
[Sc|Ac und]
+3.9 -5.7 50 +1  1030.7  0.5  731  291           
12 26.03.10 100 (В) >10 км    9/6 870 м средняя 
[Sc|Ac trans]
+5.4 -3.1 54 +3  1029.8  -0.6  731  289           
15 26.03.10 120 (ЮВ) >10 км    3/3 1000 м 
[Sc]
+4.1 -4.6 53 +1  1029.7  -0.4  731  291           
18 26.03.10 110 (В) >10 км    3/0 средняя 
[Ac trans]
+1.4 -3.4 70 -1  1029.6  -0.6  730  293    +6.1       
21 26.03.10 100 (В) >10 км    ясно 
-0.4 -6.9 62 -3  1029.4  -0.6  730  295           
00 27.03.10 120 (ЮВ) >10 км    ясно 
-1.1 -10.7 48 -6  1028.4  -1.1  729  296           
03 27.03.10 120 (ЮВ) >10 км    ясно 
-2.4 -11.2 51 -7  1027.8  -0.8  728  297           
06 27.03.10 120 (ЮВ) 10  >10 км    4/4 600 м 
[Sc]
+0.7 -6.2 60 -4  1027  -0.1  728  293  -2.6         
09 27.03.10 130 (ЮВ) 14  >10 км    4/4 600 м 
[Sc]
+4.2 -2.6 61 -1  1024.4  -1.8  727  289           
12 27.03.10 110 (В) 12  >10 км    3/3 1000 м 
[Sc]
+7.3 -2.2 51 +4  1021.6  -2  725  285           
15 27.03.10 110 (В) >10 км    3/0 средняя 
[Ac trans]
+7.2 -1.2 55 +4  1019.6  -1.9  724  284           
18 27.03.10 120 (ЮВ) >10 км    6/3 600 м средняя 
[Sc|Ac trans]
+3.1 -3 64 1019.5  -0.8  723  289    +8.1       
21 27.03.10 110 (В) >10 км    4/0 средняя 
[Ac trans]
-0.1 -2.8 82 -3  1018.6  -1.6  722  291           
00 28.03.10 130 (ЮВ) >10 км    ясно 
-2 -3.8 87 -5  1016.9  -2  721  293           
03 28.03.10 170 (Ю) >10 км    3/0 верхняя 
[Ci fib]
-1.8 -2.9 92 -6  1015.4  -1.4  720  292           
06 28.03.10 130 (ЮВ) >10 км    ясно 
+5.3 +0.1 69 +4  1013.1  -0.7  719  284  -2.6         
09 28.03.10 110 (В) >10 км    ясно 
+12.5 +1.9 48 +11  1010.5  -1.1  718  276           
12 28.03.10 100 (В) >10 км    ясно 
+15.1 +1.7 40 +15  1008.8  -1.1  717  274           
15 28.03.10 120 (ЮВ) >10 км    ясно 
+9 +0.6 56 +7  1009.5  -0.5  717  280           
18 28.03.10 130 (ЮВ) >10 км    ясно 
+4.7 +0.8 76 +3  1010.6  0.3  717  284    +15.9       
21 28.03.10 130 (ЮВ) >10 км    ясно 
+2.9 +0.8 86 1011  717  286           
00 29.03.10 150 (ЮВ) 1200 м  дымка  10/10 60 м 
[St]
+2.7 +2.4 98 1009.6  -1.3  716  285           
03 29.03.10 150 (ЮВ) 0200 м  туман  ?/?  
+2.4 +2.4 100 -1  1009.4  -0.3  716  286           
06 29.03.10 160 (Ю) >10 км  {туман}  3/1 200 м верхняя 
[St|Ci fib]
+6.8 +2.4 74 +5  1009.3  0.7  717  281  +2         
09 29.03.10 120 (ЮВ) >10 км    3/0 верхняя 
[Ci fib]
+13.9 +4.1 52 +13  1008.2  0.4  717  274           
12 29.03.10 120 (ЮВ) >10 км    6/0 верхняя 
[Ci fib]
+17.4 +3.8 40 +17  1008.3  0.6  717  271           
15 29.03.10 150 (ЮВ) >10 км    10/0 средняя, верхняя 
[Ac trans|Ci fib]
+11.6 +3.2 56 +11  1010.8  1.4  718  277           
18 29.03.10 180 (Ю) >10 км    10/0 средняя 
[Ac und]
+9.1 +5.1 76 +9  1012.7  1.3  719  280    +17.7       
21 29.03.10 150 (ЮВ) >10 км    10/3 600 м кучево-дожд., средняя 
[Cb calv|Ac und]
+9.1 +4.6 73 +8  1014.2  1.4  720  280           
00 30.03.10 290 (З) >10 км    10/0 средняя 
[Ac und]
+9.5 +6.1 79 +8  1015.2  1.1  721  280           
03 30.03.10 330 (СЗ) >10 км    10/4 1000 м кучево-дожд., средняя 
[Cb calv|Ac und]
+8.5 +5 79 +7  1016.3  0.8  722  281           
06 30.03.10 330 (СЗ) >10 км    9/3 1000 м кучево-дожд., средняя 
[Cb calv|Ac trans]
+11.1 +5.5 68 +10  1016.4  0.6  722  279  +8.2         
09 30.03.10 340 (С) >10 км    10/4 750 м кучево-дожд., средняя 
[Cb calv|Ac und]
+12.3 +6.2 66 +11  1016.4  0.3  723  278           
12 30.03.10 340 (С) >10 км    10/6 700 м кучево-дожд., средняя 
[Cb calv|Ac und]
+12 +6.2 68 +11  1016.5  723  278           
15 30.03.10 320 (СЗ) >10 км    10/6 1000 м кучево-дожд., средняя 
[Cb calv|Ac und]
+10.4 +7.4 82 +10  1016.8  723  279           
18 30.03.10 350 (С) >10 км  {ливн. осадки}  10/6 480 м кучево-дожд., средняя 
[Cb calv|Ac und]
+8.8 +6.7 87 +9  1017.4  0.3  723  281    +13.5       
21 30.03.10 250 (З) 0300 м  туман  ?/?  
+7.5 +7.5 100 +7  1017.4  -0.3  723  282           
00 31.03.10 300 (СЗ) 0200 м  туман  ?/?  
+6.7 +6.7 100 +6  1017.1  -0.5  722  283           
03 31.03.10 340 (С) 2000 м  дымка{туман}  10/10 270 м 
[St]
+6.5 +5.6 94 +6  1017.1  722  283      0.0     
06 31.03.10 340 (С) 10 км  {туман}  10/6 210 м средняя 
[St|Ac und]
+6.6 +4.5 86 +5  1017.1  722  283  +6.4    0.0     
09 31.03.10 290 (З) >10 км    10/5 420 м средняя 
[Sc|Ac und]
+8.8 +3.8 71 +7  1017.7  723  282           
12 31.03.10 330 (СЗ) >10 км    10/6 300 м кучево-дожд., средняя 
[Cb calv|Ac und]
+8.5 +5.6 82 +7  1018.2  0.5  723  282           
15 31.03.10 310 (СЗ) 4000 м  слаб. ливневой дождь  10/8 300 м кучево-дожд., средняя 
[Cb cap|Ac und]
+8 +6.5 90 +6  1018.2  -0.1  723  282           
18 31.03.10 020 (С) 1600 м  слаб. ливневой дождь  10/8 100 м кучево-дожд., средняя 
[Cb cap|Ac und]
+7.6 +7 96 +8  1018.4  0.1  723  282    +9.7  0.6     
21 31.03.10 230 (ЮЗ) 1100 м  в посл. час ливневой дождь  10/6 100 м кучево-дожд., средняя 
[Cb calv|Ac und]
+7.2 +6.5 95 +6  1017.7  -0.8  723  283           
00 01.04.10 300 (СЗ) >10 км  {ливн. осадки}  10/6 480 м кучево-дожд., средняя 
[Cb calv|Ac und]
+6.3 +4.9 91 +7  1016.9  -0.9  722  284           
03 01.04.10 310 (СЗ) 10 км    10/6 360 м кучево-дожд., средняя 
[Cb calv|Ac und]
+7 +5.6 91 +8  1016.8  722  283           
Время (UTC), дата Ветер
(°,м/с) 
Видим.   Явления Облачность Т
(°С)
Тd
(°С)
f(%) Тe
(°С)
Pmin
(гПа)
dP
(гПа)
Po
(мм)
O2
(г/м3)
Тmin Tmax R s Состояние
почвы